GW1690 Weather Reports


time (UTC)temp
C
wind
direction
speed
KPH
gust
KPH
rain 1hr
cm
rain 24hr
cm
rain mn
cm
humidity
%
barometer
mb
20260507161522 17 199 3.2 8.0 0.00 0.00 0.00 38 1014.3
20260507161024 16 220 4.8 14.5 0.00 0.00 0.00 42 1015.4
20260507160522 16 216 4.8 14.5 0.00 0.00 0.00 41 1014.6
20260507160023 16 172 4.8 14.5 0.00 0.00 0.00 40 1014.7
20260507155521 16 218 4.8 14.5 0.00 0.00 0.00 42 1015.1
20260507155043 16 210 4.8 12.9 0.00 0.00 0.00 43 1015.4
20260507154523 16 211 4.8 16.1 0.00 0.00 0.00 43 1015.2
20260507154023 16 195 4.8 9.7 0.00 0.00 0.00 43 1015.3
20260507153542 16 213 4.8 12.9 0.00 0.00 0.00 44 1015.5
20260507153023 16 193 3.2 11.3 0.00 0.00 0.00 45 1015.9
20260507152522 16 220 4.8 12.9 0.00 0.00 0.00 45 1015.7
20260507152022 16 205 3.2 11.3 0.00 0.00 0.00 47 1016.4
20260507151525 15 212 3.2 11.3 0.00 0.00 0.00 49 1017.7
20260507151023 15 191 3.2 8.0 0.00 0.00 0.00 48 1018.0
20260507150544 15 210 3.2 11.3 0.00 0.00 0.00 53 1019.9
20260507150023 15 198 4.8 11.3 0.00 0.00 0.00 52 1020.1
20260507145526 15 213 3.2 11.3 0.00 0.00 0.00 54 1022.7
20260507145023 14 210 4.8 11.3 0.00 0.00 0.00 53 1020.5
20260507144540 14 190 4.8 8.0 0.00 0.00 0.00 52 1018.9
20260507144021 14 165 3.2 8.0 0.00 0.00 0.00 53 1022.0
20260507143522 13 203 4.8 14.5 0.00 0.00 0.00 52 1020.0
20260507143023 13 212 4.8 11.3 0.00 0.00 0.00 53 1021.7
20260507142523 13 167 3.2 6.4 0.00 0.00 0.00 52 1020.1
20260507142043 13 190 3.2 9.7 0.00 0.00 0.00 55 1022.5
20260507141525 13 162 3.2 8.0 0.00 0.00 0.00 54 1021.2
20260507141021 13 163 3.2 8.0 0.00 0.00 0.00 53 1021.0
20260507140523 12 196 3.2 8.0 0.00 0.00 0.00 56 1023.3
20260507140021 12 193 3.2 8.0 0.00 0.00 0.00 56 1025.1
20260507135541 12 198 3.2 6.4 0.00 0.00 0.00 58 1027.1
20260507135024 11 174 3.2 6.4 0.00 0.00 0.00 59 1029.0
20260507134526 11 95 3.2 6.4 0.00 0.00 0.00 58 1029.3
20260507134026 11 138 3.2 4.8 0.00 0.00 0.00 60 1031.6
20260507133526 11 204 3.2 4.8 0.00 0.00 0.00 61 1033.4
20260507133025 10 182 1.6 4.8 0.00 0.00 0.00 62 1034.7
20260507132525 10 176 3.2 4.8 0.00 0.00 0.00 62 1035.0
20260507132025 10 218 1.6 4.8 0.00 0.00 0.00 62 1035.1
20260507131527 10 171 3.2 6.4 0.00 0.00 0.00 65 1038.7
20260507131027 9 214 3.2 4.8 0.00 0.00 0.00 69 1040.1
20260507130526 8 217 3.2 4.8 0.00 0.00 0.00 73 1035.8
20260507130027 8 190 3.2 4.8 0.00 0.00 0.00 76 1034.0
20260507125526 8 175 1.6 4.8 0.00 0.00 0.00 77 1033.8
20260507125026 8 190 1.6 3.2 0.00 0.00 0.00 78 1033.8
20260507124528 7 170 1.6 4.8 0.00 0.00 0.00 78 1034.4
20260507124028 7 174 1.6 3.2 0.00 0.00 0.00 81 1038.4
20260507123526 7 149 3.2 4.8 0.00 0.00 0.00 84 1042.2
20260507123108 6 200 1.6 3.2 0.00 0.00 0.00 87 1043.9
20260507122526 6 200 1.6 3.2 0.00 0.00 0.00 88 1043.9
20260507122027 6 237 1.6 3.2 0.00 0.00 0.00 89 1043.2
20260507121528 6 224 1.6 3.2 0.00 0.00 0.00 90 1042.2
20260507121027 6 224 1.6 3.2 0.00 0.00 0.00 91 1041.1
20260507120527 5 219 1.6 1.6 0.00 0.00 0.00 92 1040.2
20260507120026 5 221 1.6 3.2 0.00 0.00 0.00 92 1039.9
20260507115547 5 216 0.0 1.6 0.00 0.00 0.00 93 1039.8
20260507115027 5 223 1.6 3.2 0.00 0.00 0.00 93 1039.8
20260507114528 5 212 1.6 1.6 0.00 0.00 0.00 93 1040.0
20260507114029 5 218 1.6 1.6 0.00 0.00 0.00 93 1040.2
20260507113529 5 226 1.6 3.2 0.00 0.00 0.00 93 1040.5
20260507113029 5 227 1.6 3.2 0.00 0.00 0.00 93 1040.8
20260507112528 5 224 1.6 3.2 0.00 0.00 0.00 93 1041.2
20260507112031 5 230 1.6 3.2 0.00 0.00 0.00 93 1041.6
20260507111527 5 234 1.6 3.2 0.00 0.00 0.00 93 1042.0
20260507111029 5 231 1.6 3.2 0.00 0.00 0.00 92 1042.3
20260507110527 5 226 1.6 3.2 0.00 0.00 0.00 92 1042.6
20260507110028 5 249 3.2 3.2 0.00 0.00 0.00 92 1042.9
20260507105528 5 228 1.6 3.2 0.00 0.00 0.00 92 1043.2
20260507105048 5 251 3.2 3.2 0.00 0.00 0.00 92 1043.5
20260507104548 5 238 3.2 3.2 0.00 0.00 0.00 92 1043.8
20260507104028 5 236 3.2 3.2 0.00 0.00 0.00 91 1043.9
20260507103529 5 234 3.2 3.2 0.00 0.00 0.00 91 1044.0
20260507103029 5 243 3.2 3.2 0.00 0.00 0.00 91 1044.0
20260507102529 5 230 3.2 3.2 0.00 0.00 0.00 91 1044.0
20260507102028 5 232 3.2 3.2 0.00 0.00 0.00 91 1043.9
20260507101528 5 237 3.2 3.2 0.00 0.00 0.00 91 1043.8
20260507101030 5 307 3.2 3.2 0.00 0.00 0.00 91 1043.8
20260507100531 5 240 3.2 3.2 0.00 0.00 0.00 91 1043.8
20260507100029 5 237 3.2 3.2 0.00 0.00 0.00 91 1043.8
20260507095529 5 233 3.2 3.2 0.00 0.00 0.00 91 1043.7
20260507095028 5 262 3.2 3.2 0.00 0.00 0.00 91 1043.5
20260507094529 5 254 3.2 3.2 0.00 0.00 0.00 91 1043.4
20260507094050 5 237 3.2 3.2 0.00 0.00 0.00 90 1043.3
20260507093529 5 231 3.2 3.2 0.00 0.00 0.00 90 1043.2
20260507093030 5 240 3.2 3.2 0.00 0.00 0.00 90 1043.1
20260507092530 5 287 3.2 3.2 0.00 0.00 0.00 90 1043.1
20260507092029 5 227 1.6 3.2 0.00 0.00 0.00 90 1043.0
20260507091550 5 235 1.6 3.2 0.00 0.00 0.00 90 1043.0
20260507091030 5 234 1.6 3.2 0.00 0.00 0.00 90 1042.9
20260507090530 5 228 1.6 3.2 0.00 0.00 0.00 91 1042.9
20260507090051 5 232 3.2 3.2 0.00 0.00 0.00 90 1042.9
20260507085530 5 231 3.2 3.2 0.00 0.00 0.00 89 1042.7
20260507085030 5 244 3.2 3.2 0.00 0.00 0.00 89 1042.7
20260507084530 5 249 3.2 3.2 0.00 0.00 0.00 89 1042.3
20260507084029 5 242 3.2 3.2 0.00 0.00 0.00 88 1041.8
20260507083530 5 236 3.2 3.2 0.00 0.00 0.00 88 1041.7
20260507083111 5 245 3.2 3.2 0.00 0.00 0.00 88 1041.4
20260507082551 5 292 3.2 3.2 0.00 0.00 0.00 88 1041.2
20260507082031 5 246 3.2 3.2 0.00 0.00 0.00 87 1040.9
20260507081532 5 234 1.6 3.2 0.00 0.00 0.00 87 1040.3
20260507081032 5 261 1.6 3.2 0.00 0.00 0.00 86 1039.7
20260507080533 5 235 1.6 3.2 0.00 0.00 0.00 86 1038.6
20260507080055 5 286 3.2 3.2 0.00 0.00 0.00 84 1037.8
20260507075552 5 243 3.2 3.2 0.00 0.00 0.00 84 1038.5
20260507075031 5 233 3.2 3.2 0.00 0.00 0.00 85 1038.9
20260507074531 6 239 3.2 3.2 0.00 0.00 0.00 85 1038.1
20260507074032 6 234 3.2 3.2 0.00 0.00 0.00 85 1038.0
20260507073533 6 243 3.2 3.2 0.00 0.00 0.00 84 1037.5
20260507073033 6 235 3.2 3.2 0.00 0.00 0.00 84 1036.5
20260507072531 6 295 3.2 3.2 0.00 0.00 0.00 82 1034.9
20260507072031 6 245 3.2 3.2 0.00 0.00 0.00 82 1035.1
20260507071522 6 239 3.2 3.2 0.00 0.00 0.00 82 1034.6
20260507071022 6 256 3.2 3.2 0.00 0.00 0.00 81 1034.3
20260507070522 6 262 3.2 3.2 0.00 0.00 0.00 81 1034.7
20260507070024 6 249 3.2 3.2 0.00 0.00 0.00 81 1034.8
20260507065523 7 247 3.2 3.2 0.00 0.00 0.00 81 1034.3
20260507065043 7 336 3.2 4.8 0.00 0.03 0.00 80 1033.4
20260507064522 7 257 3.2 3.2 0.00 0.03 0.00 79 1032.3
20260507064020 7 342 3.2 4.8 0.00 0.03 0.00 77 1031.3
20260507063519 7 10 1.6 4.8 0.00 0.05 0.00 77 1031.2
20260507063024 7 17 4.8 4.8 0.00 0.05 0.00 77 1031.2
20260507062523 7 15 3.2 4.8 0.00 0.05 0.00 76 1031.3
20260507062026 7 14 3.2 4.8 0.00 0.05 0.00 75 1031.5
20260507061524 7 17 4.8 4.8 0.00 0.05 0.00 75 1031.4
20260507061023 7 19 4.8 4.8 0.00 0.05 0.00 76 1031.4
20260507060523 7 16 4.8 4.8 0.00 0.08 0.00 75 1031.5
20260507060045 7 19 4.8 4.8 0.00 0.08 0.00 75 1031.9
20260507055521 7 15 4.8 4.8 0.00 0.08 0.00 75 1031.6
20260507055023 7 13 3.2 4.8 0.00 0.10 0.00 75 1031.7
20260507054520 7 15 3.2 4.8 0.00 0.10 0.00 74 1032.4
20260507054043 7 19 3.2 4.8 0.00 0.10 0.00 73 1033.2
20260507053522 8 18 4.8 4.8 0.00 0.10 0.00 72 1034.7
20260507053027 8 18 4.8 4.8 0.00 0.10 0.00 72 1035.3
20260507052524 8 21 3.2 4.8 0.00 0.10 0.00 71 1036.7
20260507052025 8 19 3.2 4.8 0.00 0.10 0.00 70 1038.7
20260507051521 8 20 4.8 4.8 0.00 0.10 0.00 70 1038.2
20260507051022 8 21 4.8 4.8 0.00 0.10 0.00 70 1038.0
20260507050521 8 18 1.6 4.8 0.00 0.10 0.00 71 1037.2
20260507050021 8 219 0.0 3.2 0.00 0.10 0.00 70 1037.7
20260507045522 8 15 3.2 4.8 0.00 0.10 0.10 70 1037.9
20260507045023 8 16 3.2 4.8 0.00 0.13 0.10 70 1037.1
20260507044521 8 17 3.2 4.8 0.00 0.13 0.10 72 1034.9
20260507044042 8 19 3.2 4.8 0.00 0.13 0.10 71 1036.7
20260507043522 8 15 4.8 4.8 0.00 0.13 0.10 71 1036.1
20260507043022 8 9 1.6 4.8 0.00 0.15 0.10 72 1034.3
20260507042521 8 18 3.2 4.8 0.00 0.15 0.10 72 1034.9
20260507042024 8 18 3.2 4.8 0.00 0.15 0.10 71 1037.1
20260507041522 8 18 3.2 4.8 0.00 0.15 0.10 70 1038.1
20260507041023 8 17 3.2 4.8 0.00 0.15 0.10 70 1038.5
20260507040542 8 12 1.6 4.8 0.00 0.15 0.10 71 1037.1
20260507040022 8 19 3.2 4.8 0.00 0.15 0.10 70 1038.4
20260507035523 8 9 1.6 4.8 0.00 0.15 0.10 70 1038.5
20260507035025 9 11 3.2 4.8 0.00 0.15 0.10 70 1039.1
20260507034520 9 16 3.2 4.8 0.00 0.15 0.10 68 1040.7
20260507034044 9 319 1.6 4.8 0.00 0.15 0.10 68 1040.7
20260507033523 9 337 1.6 4.8 0.00 0.15 0.10 68 1040.7
20260507033025 9 17 3.2 4.8 0.00 0.15 0.10 67 1041.4
20260507032523 9 246 3.2 4.8 0.00 0.15 0.10 67 1041.4
20260507032025 9 228 1.6 4.8 0.00 0.15 0.10 68 1041.1
20260507031524 10 308 3.2 4.8 0.00 0.18 0.10 67 1041.3
20260507031020 10 18 4.8 6.4 0.00 0.18 0.10 67 1041.3
20260507030520 10 349 4.8 4.8 0.00 0.18 0.10 66 1041.5
20260507030021 10 245 4.8 4.8 0.00 0.18 0.10 66 1041.6
20260507025520 10 234 4.8 4.8 0.00 0.18 0.10 66 1041.4
20260507025024 10 248 4.8 6.4 0.00 0.18 0.10 65 1041.0
20260507024524 10 336 4.8 6.4 0.00 0.18 0.10 65 1041.3
20260507024025 10 262 4.8 6.4 0.00 0.18 0.10 65 1041.3
20260507023524 10 347 4.8 6.4 0.00 0.18 0.10 64 1041.0
20260507023025 10 251 4.8 6.4 0.00 0.18 0.10 64 1040.3
20260507022520 10 260 4.8 6.4 0.00 0.18 0.10 64 1039.9
20260507022022 11 288 4.8 6.4 0.00 0.18 0.10 63 1039.3
20260507021521 11 252 4.8 6.4 0.00 0.18 0.10 64 1040.6
20260507021021 11 337 4.8 6.4 0.00 0.18 0.10 63 1040.2
20260507020542 11 338 6.4 6.4 0.00 0.18 0.10 63 1040.3
20260507020043 11 239 4.8 6.4 0.00 0.20 0.10 63 1040.0
20260507015521 11 333 4.8 6.4 0.00 0.20 0.10 62 1038.1
20260507015023 11 241 4.8 6.4 0.00 0.20 0.10 62 1038.5
20260507014601 11 243 4.8 6.4 0.00 0.23 0.10 62 1039.1
20260507014022 11 347 6.4 6.4 0.00 0.25 0.10 61 1035.9
20260507013543 12 245 4.8 6.4 0.00 0.25 0.10 60 1034.7
20260507013022 12 242 4.8 6.4 0.00 0.28 0.10 59 1032.4
20260507012522 12 231 1.6 4.8 0.00 0.28 0.10 58 1029.9
20260507012022 12 4 3.2 6.4 0.00 0.30 0.10 57 1028.7
20260507011522 12 317 1.6 6.4 0.00 0.30 0.10 57 1028.0
20260507011022 13 25 4.8 6.4 0.00 0.30 0.10 54 1022.8
20260507010522 13 26 4.8 6.4 0.00 0.33 0.10 53 1021.3
20260507010023 13 26 6.4 8.0 0.00 0.38 0.10 53 1021.7
20260507005523 13 25 4.8 8.0 0.00 0.41 0.10 51 1019.9
20260507005044 13 23 6.4 9.7 0.00 0.43 0.10 51 1019.4
20260507004543 13 23 6.4 9.7 0.00 0.48 0.10 51 1018.5
20260507004023 13 11 6.4 9.7 0.00 0.48 0.10 51 1019.2
20260507003522 13 17 8.0 8.0 0.00 0.48 0.10 50 1018.5
20260507003045 14 344 6.4 9.7 0.00 0.53 0.10 49 1017.8
20260507002523 14 6 8.0 11.3 0.00 0.53 0.10 49 1017.3
20260507002024 14 319 8.0 11.3 0.00 0.53 0.10 48 1017.0
20260507001521 14 351 9.7 11.3 0.00 0.53 0.10 48 1016.7
20260507001021 14 329 9.7 11.3 0.00 0.53 0.10 48 1016.0
20260507000521 14 232 6.4 11.3 0.00 0.53 0.10 47 1016.2
20260507000023 15 254 8.0 9.7 0.00 0.53 0.10 48 1016.5
20260506235523 15 346 9.7 11.3 0.00 0.53 0.10 47 1016.0
20260506235045 15 3 9.7 12.9 0.00 0.53 0.10 46 1015.3
20260506234524 15 10 9.7 14.5 0.00 0.53 0.10 45 1014.6
20260506234024 15 13 11.3 14.5 0.00 0.56 0.10 46 1015.1
20260506233521 15 23 12.9 17.7 0.00 0.56 0.10 46 1015.3
20260506233021 15 21 12.9 16.1 0.00 0.56 0.10 45 1014.7
20260506232522 15 21 12.9 17.7 0.00 0.56 0.10 45 1014.8
20260506232042 15 22 12.9 17.7 0.00 0.64 0.10 45 1014.8
20260506231521 15 25 11.3 17.7 0.00 0.71 0.10 46 1015.0
20260506231021 15 25 11.3 16.1 0.00 0.74 0.10 45 1014.9
20260506230603 15 256 11.3 16.1 0.00 0.76 0.10 45 1014.8
20260506230026 15 227 11.3 14.5 0.00 0.76 0.10 44 1014.3
20260506225523 15 224 9.7 14.5 0.00 0.76 0.10 44 1014.5
20260506225021 15 230 9.7 14.5 0.00 0.76 0.10 45 1014.9
20260506224521 15 321 9.7 16.1 0.00 0.76 0.10 46 1015.8
20260506224022 15 275 9.7 14.5 0.00 0.76 0.10 44 1014.7
20260506223524 16 251 8.0 16.1 0.00 0.76 0.10 45 1014.8
20260506223022 16 233 3.2 11.3 0.00 0.79 0.10 43 1014.4
20260506222522 16 219 1.6 3.2 0.00 0.79 0.10 44 1014.4
20260506222022 16 223 3.2 9.7 0.00 0.79 0.10 43 1014.2
20260506221523 16 228 3.2 11.3 0.00 0.79 0.10 45 1014.7
20260506221023 16 227 4.8 11.3 0.00 0.79 0.10 45 1015.0
20260506220520 16 231 8.0 14.5 0.00 0.79 0.10 44 1014.3
20260506220023 16 225 8.0 14.5 0.00 0.79 0.10 45 1014.9
20260506215523 16 223 4.8 9.7 0.00 0.79 0.10 44 1014.6
20260506215023 16 232 6.4 16.1 0.00 0.79 0.10 43 1014.6
20260506214522 16 306 11.3 17.7 0.00 0.79 0.10 44 1014.7
20260506214025 16 305 11.3 16.1 0.00 0.79 0.10 44 1014.6
20260506213523 16 273 11.3 16.1 0.00 0.79 0.10 43 1014.3
20260506213021 16 255 4.8 12.9 0.00 0.79 0.10 45 1014.8
20260506212524 16 271 9.7 14.5 0.00 0.79 0.10 44 1015.1
20260506212021 16 259 9.7 16.1 0.00 0.79 0.10 43 1014.3
20260506211522 16 260 12.9 19.3 0.00 0.79 0.10 43 1014.3
20260506211100 16 255 11.3 17.7 0.00 0.79 0.10 44 1014.7
20260506210520 16 247 3.2 16.1 0.00 0.79 0.10 45 1015.0
20260506210023 17 219 3.2 11.3 0.00 0.79 0.10 43 1014.6
20260506205604 17 218 3.2 11.3 0.00 0.79 0.10 45 1015.3
20260506205023 16 217 3.2 11.3 0.00 0.79 0.10 47 1016.0
20260506204524 16 215 3.2 12.9 0.00 0.81 0.10 47 1016.2
20260506204041 16 218 4.8 12.9 0.00 0.81 0.10 48 1016.8
20260506203520 16 266 8.0 17.7 0.00 0.81 0.10 45 1015.1
20260506203022 16 304 11.3 16.1 0.00 0.81 0.10 46 1015.7
20260506202522 16 347 14.5 22.5 0.00 0.81 0.10 44 1015.0
20260506202021 16 319 12.9 22.5 0.00 0.81 0.10 43 1014.7
20260506201521 16 9 12.9 16.1 0.00 0.81 0.10 43 1014.9
20260506201021 16 347 11.3 16.1 0.00 0.84 0.10 44 1015.0
20260506200521 16 215 4.8 12.9 0.00 0.84 0.10 45 1016.0
20260506200043 16 216 3.2 12.9 0.00 0.84 0.10 45 1016.0
20260506195521 16 219 3.2 12.9 0.00 0.84 0.10 44 1015.1
20260506195021 16 214 4.8 12.9 0.00 0.84 0.10 45 1016.2
20260506194603 16 214 4.8 12.9 0.00 0.84 0.10 46 1016.6
20260506194022 16 221 3.2 12.9 0.00 0.84 0.10 46 1016.4
20260506193543 16 242 9.7 16.1 0.00 0.84 0.10 44 1015.7
20260506193022 16 227 8.0 16.1 0.00 0.84 0.10 44 1016.2
20260506192524 16 277 9.7 16.1 0.00 0.84 0.10 43 1015.0
20260506192023 16 331 9.7 14.5 0.00 0.84 0.10 43 1015.0
20260506191522 16 345 11.3 17.7 0.00 0.84 0.10 43 1015.0
20260506191043 16 12 12.9 19.3 0.00 0.84 0.10 43 1014.9
20260506190523 16 14 14.5 17.7 0.00 0.84 0.10 44 1014.9
20260506190025 16 14 14.5 19.3 0.00 0.84 0.10 42 1014.5
20260506185523 17 19 14.5 22.5 0.00 0.84 0.10 41 1014.1
20260506185022 17 341 11.3 24.1 0.00 0.84 0.10 42 1014.1
20260506184524 17 342 11.3 20.9 0.00 0.84 0.10 42 1014.2
20260506184023 17 5 11.3 17.7 0.00 0.84 0.10 43 1014.3
20260506183523 17 25 9.7 17.7 0.00 0.84 0.10 43 1014.5
20260506183022 17 24 8.0 16.1 0.00 0.84 0.10 43 1014.5
20260506182524 17 245 9.7 19.3 0.00 0.84 0.10 45 1014.9
20260506182020 17 5 9.7 17.7 0.00 0.84 0.10 45 1015.4
20260506181520 16 14 11.3 17.7 0.00 0.84 0.10 45 1015.2
20260506181045 16 289 9.7 17.7 0.00 0.84 0.10 46 1015.2
20260506180523 17 230 8.0 16.1 0.00 0.84 0.10 49 1016.9
20260506180023 17 194 4.8 12.9 0.00 0.84 0.10 52 1019.1
20260506175543 17 218 4.8 12.9 0.00 0.84 0.10 51 1019.0
20260506175022 17 239 6.4 14.5 0.00 0.84 0.10 54 1021.8
20260506174523 17 280 9.7 17.7 0.00 0.84 0.10 56 1025.2
20260506174021 16 279 8.0 16.1 0.00 0.84 0.10 59 1028.7
20260506173523 16 299 4.8 14.5 0.00 0.84 0.10 60 1031.3
20260506173024 16 360 6.4 12.9 0.00 0.84 0.10 61 1031.6
20260506172524 15 241 9.7 14.5 0.00 0.84 0.10 65 1040.5
20260506172024 14 232 8.0 14.5 0.00 0.84 0.10 67 1040.8
20260506171525 13 333 9.7 16.1 0.00 0.84 0.10 68 1040.9
20260506171025 13 345 9.7 12.9 0.00 0.84 0.10 67 1039.5
20260506170524 13 352 9.7 11.3 0.00 0.84 0.10 70 1038.9
20260506170025 13 360 8.0 11.3 0.00 0.84 0.10 71 1038.1
20260506165525 13 18 9.7 11.3 0.00 0.84 0.10 71 1037.5
20260506165026 13 337 8.0 12.9 0.00 0.86 0.10 73 1034.5
20260506164525 12 16 8.0 11.3 0.00 0.86 0.10 75 1032.6
20260506164025 12 358 8.0 11.3 0.00 0.86 0.10 73 1033.5
20260506163526 12 12 8.0 12.9 0.00 0.86 0.10 76 1030.9
20260506163031 12 344 8.0 11.3 0.00 0.86 0.10 76 1031.0
20260506162534 12 216 1.6 4.8 0.00 0.86 0.10 79 1032.2
20260506162034 12 218 3.2 4.8 0.00 0.86 0.10 80 1032.8